Pueblo, CO

9:36 AM MDT on July 26, 2017 (GMT -0600)
Pueblo Memorial

Weather History for KPUB - May, 2013

Change the Weather History Date:

Saturday, May 25, 2013

  Actual Average Record
Temperature  
Mean Temperature 73 °F 63 °F  
Max Temperature 93 °F 80 °F 94 °F (1964)
Min Temperature 52 °F 47 °F 32 °F (2002)
Degree Days  
Heating Degree Days 0 3  
Month to date heating degree days 191 156  
Since 1 July heating degree days 5704 5596  
Cooling Degree Days 8 2  
Month to date cooling degree days 46 18  
Year to date cooling degree days 47 20  
Growing Degree Days 23 (Base 50)    
Moisture  
Dew Point 23 °F    
Average Humidity 29    
Maximum Humidity 54    
Minimum Humidity 3    
Precipitation  
Precipitation 0.00 in 0.05 in 1.50 in (1996)
Month to date precipitation 0.73 1.22  
Year to date precipitation 1.93 4.20  
Snow  
Snow 0.00 in 0.00 in 0.00 in (2002)
Month to date snowfall 0.6 0.5  
Since 1 July snowfall 24.4 31.8  
Snow Depth 0.00 in    
Sea Level Pressure  
Sea Level Pressure 29.72 in    
Wind  
Wind Speed 8 mph (WSW)    
Max Wind Speed 24 mph    
Max Gust Speed 29 mph    
Visibility 10 miles    
Events      
T = Trace of Precipitation, MM = Missing Value Source: NWS Daily Summary

Daily Weather History Graph

Daily Weather History Graph

Search for Another Location

Airport or City:

Trip Planner

Search our weather history database for the weather conditions in past years. The results will help you decide how hot, cold, wet, or windy it might be!

Date:

Astronomy

May. 25, 2013 Rise Set
Actual Time 5:39 AM MDT 8:10 PM MDT
Civil Twilight 5:08 AM MDT 8:41 PM MDT
Nautical Twilight 4:31 AM MDT 9:19 PM MDT
Astronomical Twilight 3:49 AM MDT 10:01 PM MDT
Moon 9:01 PM MDT (5/25) 6:08 AM MDT (5/25)
Length of Visible Light 15h 32m
Length of Day
14h 31m
Waxing Gibbous, 99% of the Moon is Illuminated
May 25
Waxing Gibbous
May 31
Last Quarter
Jun 8
New
Jun 16
First Quarter
Jun 23
Full

Hourly Weather History & Observations

Time (MDT) Temp. Dew Point Humidity Pressure Visibility Wind Dir Wind Speed Gust Speed Precip Events Conditions
12:20 AM 71.6 °F 41.0 °F 33% 29.95 in 10.0 mi SSW 12.7 mph - N/A   Clear
12:53 AM 70.0 °F 41.0 °F 35% 29.75 in 10.0 mi East 3.5 mph - N/A   Clear
1:38 AM 66.2 °F 41.0 °F 40% 29.96 in 10.0 mi SSE 15.0 mph - N/A   Clear
1:53 AM 66.0 °F 41.0 °F 40% 29.75 in 10.0 mi SE 10.4 mph - N/A   Clear
2:53 AM 68.0 °F 43.0 °F 40% 29.75 in 10.0 mi SSW 15.0 mph - N/A   Clear
3:53 AM 66.9 °F 46.0 °F 47% 29.76 in 10.0 mi SW 13.8 mph 24.2 mph N/A   Clear
4:53 AM 59.0 °F 30.9 °F 35% 29.79 in 10.0 mi West 10.4 mph - N/A   Clear
5:53 AM 54.0 °F 37.9 °F 55% - 10.0 mi WNW 4.6 mph - N/A   Clear
6:53 AM 57.0 °F 39.9 °F 53% - 10.0 mi WNW 10.4 mph - N/A   Clear
7:53 AM 63.0 °F 42.1 °F 46% - 10.0 mi West 5.8 mph - N/A   Clear
8:53 AM 68.0 °F 43.0 °F 40% - 10.0 mi SSW 3.5 mph - N/A   Clear
9:53 AM 73.9 °F 35.1 °F 24% 29.80 in 10.0 mi SW 4.6 mph - N/A   Clear
10:53 AM 81.0 °F 30.0 °F 16% 29.77 in 10.0 mi Calm Calm - N/A   Clear
11:53 AM 87.1 °F 17.1 °F 8% 29.75 in 10.0 mi SW 5.8 mph - N/A   Clear
12:53 PM 88.0 °F 18.0 °F 8% 29.72 in 10.0 mi ESE 4.6 mph - N/A   Clear
1:53 PM 91.0 °F 9.0 °F 5% 29.70 in 10.0 mi WSW 12.7 mph 16.1 mph N/A   Clear
2:53 PM 90.0 °F 7.0 °F 4% 29.67 in 10.0 mi South 9.2 mph 18.4 mph N/A   Clear
3:53 PM 91.9 °F 3.9 °F 4% 29.65 in 10.0 mi SW 9.2 mph 18.4 mph N/A   Clear
4:53 PM 91.0 °F -0.0 °F 4% 29.66 in 10.0 mi West 13.8 mph - N/A   Clear
5:53 PM 90.0 °F 1.9 °F 4% 29.66 in 10.0 mi West 11.5 mph 18.4 mph N/A   Clear
6:53 PM 89.1 °F 3.9 °F 4% 29.63 in 10.0 mi Variable 3.5 mph - N/A   Clear
7:53 PM 84.0 °F 7.0 °F 5% 29.64 in 10.0 mi West 4.6 mph - N/A   Clear
8:53 PM 72.0 °F 9.0 °F 9% 29.66 in 10.0 mi West 9.2 mph - N/A   Clear
9:53 PM 70.0 °F 10.9 °F 10% 29.67 in 10.0 mi NW 8.1 mph - N/A   Clear
10:53 PM 68.0 °F 12.9 °F 12% 29.67 in 10.0 mi West 6.9 mph - N/A   Clear
11:53 PM 64.9 °F 12.9 °F 13% 29.66 in 10.0 mi WNW 9.2 mph - N/A   Clear